Home > Weather > Rotherham > Past weeks

Flag for United Kingdom Past Weather in Rotherham, England, United Kingdom — Yesterday and Last 2 Weeks

Now
47 °F

Fog.


Feels Like: 43 °F
Forecast: 44 / 64 °F
Wind: 8 mph from Northeast

Location: Nottingham Weather Centre

Current Time: May 29, 2016 at 8:44:03 AM

Latest Report: May 29, 2016 at 7:00 AM


Visibility: 3 mi

Pressure: 29.98 "Hg

Humidity: 95%

Dew Point: 46 °F

Location of RotherhamLocation

Past Weather in Rotherham — Graph

°F

Rotherham Temperature Yesterday

Maximum temperature yesterday: 61 °F (at 6:00 PM)
Minimum temperature yesterday: 43 °F (at 4:00 AM)
Average temperature yesterday: 52 °F

High & Low Weather Summary for the Past Weeks

 TemperatureHumidityPressure
High64 °F (May 17, 5:00 PM)100% (May 27, 7:00 AM)30.24 "Hg (May 27, 7:00 AM)
Low39 °F (May 15, 5:00 AM)41% (May 15, 3:00 PM)29.59 "Hg (May 18, 1:00 PM)
Average52 °F77%29.98 "Hg
* Reported May 14 7:00 AM — May 29 7:00 AM, Rotherham, Weather by CustomWeather, © 2016

Note: Actual official high and low records may vary slightly from our data, if they occured in-between our weather recording intervals... More about our weather records

Advertising

Rotherham Weather History for the Previous 24 Hours

Scroll right to see more
 ConditionsComfort  
Time TempWeatherWind HumidityBarometerVisibility
7:00 AM
Sun, May 29
47 °FFog.8 mph95%29.98 "Hg3 mi
6:00 AM46 °FFog.6 mph96%29.98 "Hg2 mi
5:00 AM47 °FFog.5 mph95%29.98 "Hg2 mi
4:00 AM48 °FFog.3 mph94%29.99 "Hg3 mi
3:00 AM47 °FFog.3 mph96%29.99 "Hg3 mi
2:00 AM45 °FFog.5 mph97%29.99 "Hg2 mi
1:00 AM46 °FFog.5 mph94%30.00 "Hg3 mi
12:00 AM48 °FSmoke.6 mph91%30.00 "Hg4 mi
11:00 PM
Sat, May 28
49 °FCool.7 mph86%30.01 "Hg15 mi
10:00 PM52 °FCool.6 mph80%30.01 "Hg6 mi
9:00 PM54 °FCool.6 mph72%30.00 "Hg19 mi
8:00 PM58 °FCool.8 mph65%29.98 "Hg10 mi
7:00 PM60 °FCool.7 mph62%29.97 "Hg31 mi
6:00 PM61 °FCool.6 mph60%29.98 "Hg25 mi
2:00 PM60 °FRefreshingly cool.6 mph59%30.02 "Hg22 mi
1:00 PM59 °FCool.7 mph61%30.03 "Hg31 mi
12:00 PM59 °FCool.6 mph65%30.03 "Hg19 mi
11:00 AM58 °FSmoke.8 mph66%30.04 "Hg8 mi
10:00 AM57 °FCool.8 mph67%30.05 "Hg22 mi
Weather by CustomWeather, © 2016

See weather overviewHow to use our weather pages